TimePDT,TemperatureF,Dew PointF,Humidity,Sea Level PressureIn,VisibilityMPH,Wind Direction,Wind SpeedMPH,Gust SpeedMPH,PrecipitationIn,Events,Conditions,WindDirDegrees,DateUTC
12:53 AM,66.9,51.1,57,29.96,10.0,NW,12.7,20.7,N/A,,Clear,320,2013-09-09 07:53:00
1:53 AM,66.9,50.0,54,29.96,10.0,WNW,11.5,-,N/A,,Clear,300,2013-09-09 08:53:00
2:53 AM,66.0,50.0,56,29.95,10.0,WNW,6.9,-,N/A,,Clear,290,2013-09-09 09:53:00
3:53 AM,66.0,48.9,54,29.95,10.0,NW,11.5,-,N/A,,Clear,310,2013-09-09 10:53:00
4:53 AM,64.0,48.9,58,29.95,10.0,NW,6.9,-,N/A,,Clear,310,2013-09-09 11:53:00
5:53 AM,64.0,48.0,56,29.95,10.0,NW,10.4,-,N/A,,Clear,310,2013-09-09 12:53:00
6:53 AM,62.1,46.0,56,29.96,10.0,NW,6.9,-,N/A,,Clear,310,2013-09-09 13:53:00
7:53 AM,69.1,51.1,53,29.98,10.0,West,4.6,-,N/A,,Clear,280,2013-09-09 14:53:00
8:53 AM,71.1,52.0,51,29.99,10.0,Calm,Calm,-,N/A,,Clear,0,2013-09-09 15:53:00
9:53 AM,78.1,53.1,42,29.97,10.0,NW,12.7,-,N/A,,Clear,310,2013-09-09 16:53:00
10:53 AM,82.0,54.0,38,29.97,10.0,WNW,5.8,-,N/A,,Clear,300,2013-09-09 17:53:00
11:53 AM,84.9,53.1,33,29.95,10.0,NW,5.8,-,N/A,,Clear,310,2013-09-09 18:53:00
12:53 PM,84.9,57.0,38,29.94,10.0,ESE,4.6,-,N/A,,Clear,120,2013-09-09 19:53:00
1:53 PM,89.1,55.0,31,29.92,10.0,SE,6.9,-,N/A,,Clear,130,2013-09-09 20:53:00
2:53 PM,89.1,52.0,28,29.90,10.0,Variable,3.5,-,N/A,,Clear,0,2013-09-09 21:53:00
3:53 PM,90.0,50.0,25,29.89,10.0,NW,4.6,-,0.00,,Clear,310,2013-09-09 22:53:00
4:53 PM,88.0,50.0,27,29.89,10.0,NW,11.5,-,N/A,,Clear,320,2013-09-09 23:53:00
5:53 PM,84.9,51.1,31,29.88,10.0,NNW,11.5,-,N/A,,Clear,330,2013-09-10 00:53:00
6:53 PM,81.0,51.1,35,29.89,10.0,NNW,13.8,-,N/A,,Clear,330,2013-09-10 01:53:00
7:53 PM,77.0,50.0,39,29.91,10.0,NNW,16.1,-,N/A,,Clear,330,2013-09-10 02:53:00
8:53 PM,72.0,52.0,49,29.92,10.0,NW,9.2,-,N/A,,Clear,320,2013-09-10 03:53:00
9:53 PM,70.0,54.0,57,29.93,10.0,NW,10.4,-,N/A,,Clear,310,2013-09-10 04:53:00
10:53 PM,68.0,55.0,63,29.93,10.0,WNW,6.9,-,N/A,,Clear,290,2013-09-10 05:53:00
11:53 PM,64.0,54.0,70,29.94,10.0,Calm,Calm,-,N/A,,Clear,0,2013-09-10 06:53:00